Time,TemperatureF,DewpointF,PressureIn,WindDirection,WindDirectionDegrees,WindSpeedMPH,WindSpeedGustMPH,Humidity,HourlyPrecipIn,Conditions,Clouds,dailyrainin,SoftwareType,DateUTC
2013-01-24 00:10:00,-1.6,-10.0,30.65,North,355,4.0,10.0,69,0.00,,,0.00,weatherlink.com 1.10,2013-01-24 06:10:00,
2013-01-24 00:25:00,-1.8,-9.0,30.65,NNE,22,7.0,12.0,70,0.00,,,0.00,weatherlink.com 1.10,2013-01-24 06:25:00,
2013-01-24 00:40:00,-2.0,-10.0,30.65,North,360,2.0,12.0,70,0.00,,,0.00,weatherlink.com 1.10,2013-01-24 06:40:00,
2013-01-24 00:55:00,-2.1,-9.0,30.65,North,350,6.0,11.0,71,0.00,,,0.00,weatherlink.com 1.10,2013-01-24 06:55:00,
2013-01-24 01:10:00,-2.2,-9.0,30.65,NNE,14,4.0,10.0,71,0.00,,,0.00,weatherlink.com 1.10,2013-01-24 07:10:00,
2013-01-24 01:25:00,-2.3,-10.0,30.66,North,350,6.0,9.0,71,0.00,,,0.00,weatherlink.com 1.10,2013-01-24 07:25:00,
2013-01-24 01:40:00,-2.3,-10.0,30.65,NNW,327,6.0,11.0,71,0.00,,,0.00,weatherlink.com 1.10,2013-01-24 07:40:00,
2013-01-24 01:55:00,-2.3,-10.0,30.66,NNE,20,1.0,11.0,71,0.00,,,0.00,weatherlink.com 1.10,2013-01-24 07:55:00,
2013-01-24 02:11:00,-2.3,-9.0,30.66,North,5,4.0,8.0,72,0.00,,,0.00,weatherlink.com 1.10,2013-01-24 08:11:00,
2013-01-24 02:29:00,-2.3,-9.0,30.68,North,360,3.0,8.0,73,0.00,,,0.00,weatherlink.com 1.10,2013-01-24 08:29:00,
2013-01-24 02:41:00,-2.2,-9.0,30.68,NNE,16,5.0,8.0,73,0.00,,,0.00,weatherlink.com 1.10,2013-01-24 08:41:00,
2013-01-24 02:56:00,-2.2,-9.0,30.68,North,349,4.0,8.0,73,0.00,,,0.00,weatherlink.com 1.10,2013-01-24 08:56:00,
2013-01-24 03:11:00,-2.0,-9.0,30.69,NNW,344,4.0,9.0,73,0.00,,,0.00,weatherlink.com 1.10,2013-01-24 09:11:00,
2013-01-24 03:26:00,-1.8,-9.0,30.68,NNE,26,3.0,7.0,73,0.00,,,0.00,weatherlink.com 1.10,2013-01-24 09:26:00,
2013-01-24 03:41:00,-1.6,-8.0,30.69,North,360,5.0,9.0,73,0.00,,,0.00,weatherlink.com 1.10,2013-01-24 09:41:00,
2013-01-24 03:56:00,-1.4,-8.0,30.70,North,5,4.0,8.0,73,0.00,,,0.00,weatherlink.com 1.10,2013-01-24 09:56:00,
2013-01-24 04:12:00,-1.1,-8.0,30.67,NE,51,3.0,9.0,73,0.00,,,0.00,weatherlink.com 1.10,2013-01-24 10:12:00,
2013-01-24 04:27:00,-1.1,-8.0,30.66,NNE,26,5.0,8.0,73,0.00,,,0.00,weatherlink.com 1.10,2013-01-24 10:27:00,
2013-01-24 04:41:00,-1.0,-7.0,30.66,ENE,60,3.0,10.0,74,0.00,,,0.00,weatherlink.com 1.10,2013-01-24 10:41:00,
2013-01-24 04:57:00,-0.7,-7.0,30.66,ENE,75,7.0,8.0,74,0.00,,,0.00,weatherlink.com 1.10,2013-01-24 10:57:00,
2013-01-24 05:11:00,-0.2,-7.0,30.66,ENE,60,8.0,10.0,72,0.00,,,0.00,weatherlink.com 1.10,2013-01-24 11:11:00,
2013-01-24 05:27:00,0.2,-8.0,30.67,ENE,61,5.0,10.0,67,0.00,,,0.00,weatherlink.com 1.10,2013-01-24 11:27:00,
2013-01-24 05:42:00,0.1,-9.0,30.68,NE,56,6.0,9.0,65,0.00,,,0.00,weatherlink.com 1.10,2013-01-24 11:42:00,
2013-01-24 05:57:00,0.2,-9.0,30.69,East,80,5.0,7.0,65,0.00,,,0.00,weatherlink.com 1.10,2013-01-24 11:57:00,
2013-01-24 06:12:00,0.2,-9.0,30.69,East,94,1.0,5.0,65,0.00,,,0.00,weatherlink.com 1.10,2013-01-24 12:12:00,
2013-01-24 06:27:00,0.2,-9.0,30.68,East,98,2.0,6.0,66,0.00,,,0.00,weatherlink.com 1.10,2013-01-24 12:27:00,
2013-01-24 06:42:00,0.1,-9.0,30.70,East,86,1.0,4.0,65,0.00,,,0.00,weatherlink.com 1.10,2013-01-24 12:42:00,
2013-01-24 06:57:00,0.1,-9.0,30.70,NE,48,2.0,4.0,66,0.00,,,0.00,weatherlink.com 1.10,2013-01-24 12:57:00,
2013-01-24 07:12:00,0.2,-9.0,30.71,ENE,57,4.0,6.0,65,0.00,,,0.00,weatherlink.com 1.10,2013-01-24 13:12:00,
2013-01-24 07:27:00,0.3,-9.0,30.71,NE,46,3.0,6.0,65,0.00,,,0.00,weatherlink.com 1.10,2013-01-24 13:27:00,
2013-01-24 07:42:00,0.3,-9.0,30.70,East,90,2.0,5.0,64,0.00,,,0.00,weatherlink.com 1.10,2013-01-24 13:42:00,
2013-01-24 07:57:00,0.4,-9.0,30.70,ENE,78,4.0,5.0,66,0.00,,,0.00,weatherlink.com 1.10,2013-01-24 13:57:00,
2013-01-24 08:12:00,0.6,-9.0,30.69,East,82,2.0,7.0,65,0.00,,,0.00,weatherlink.com 1.10,2013-01-24 14:12:00,
2013-01-24 08:27:00,0.7,-9.0,30.68,ESE,112,3.0,9.0,65,0.00,,,0.00,weatherlink.com 1.10,2013-01-24 14:27:00,
2013-01-24 08:43:00,0.9,-8.0,30.67,ESE,103,1.0,9.0,66,0.00,,,0.00,weatherlink.com 1.10,2013-01-24 14:43:00,
2013-01-24 08:58:00,1.3,-8.0,30.68,SE,124,0.0,6.0,66,0.00,,,0.00,weatherlink.com 1.10,2013-01-24 14:58:00,
2013-01-24 09:13:00,1.7,-8.0,30.68,SE,128,0.0,10.0,65,0.00,,,0.00,weatherlink.com 1.10,2013-01-24 15:13:00,
2013-01-24 09:28:00,2.0,-7.0,30.67,ESE,115,3.0,8.0,65,0.00,,,0.00,weatherlink.com 1.10,2013-01-24 15:28:00,
2013-01-24 09:43:00,2.7,-7.0,30.67,SSE,147,4.0,11.0,65,0.00,,,0.00,weatherlink.com 1.10,2013-01-24 15:43:00,
2013-01-24 09:58:00,3.2,-7.0,30.66,South,184,2.0,9.0,64,0.00,,,0.00,weatherlink.com 1.10,2013-01-24 15:58:00,
2013-01-24 10:13:00,3.7,-6.0,30.66,ESE,113,4.0,6.0,64,0.00,,,0.00,weatherlink.com 1.10,2013-01-24 16:13:00,
2013-01-24 10:28:00,4.4,-6.0,30.66,SSW,198,1.0,9.0,63,0.00,,,0.00,weatherlink.com 1.10,2013-01-24 16:28:00,
2013-01-24 10:43:00,4.9,-5.0,30.66,SSE,165,2.0,10.0,63,0.00,,,0.00,weatherlink.com 1.10,2013-01-24 16:43:00,
2013-01-24 11:14:00,6.2,-4.0,30.65,SE,137,4.0,12.0,62,0.00,,,0.00,weatherlink.com 1.10,2013-01-24 17:14:00,
2013-01-24 11:29:00,6.7,-4.0,30.64,SE,144,1.0,11.0,61,0.00,,,0.00,weatherlink.com 1.10,2013-01-24 17:29:00,
2013-01-24 11:44:00,7.3,-4.0,30.63,SSE,164,2.0,8.0,60,0.00,,,0.00,weatherlink.com 1.10,2013-01-24 17:44:00,
2013-01-24 11:58:00,7.7,-4.0,30.61,South,182,4.0,12.0,58,0.00,,,0.00,weatherlink.com 1.10,2013-01-24 17:58:00,
2013-01-24 12:14:00,8.0,-5.0,30.61,South,172,5.0,13.0,57,0.00,,,0.00,weatherlink.com 1.10,2013-01-24 18:14:00,
2013-01-24 12:29:00,8.8,-4.0,30.61,SSE,161,8.0,10.0,56,0.00,,,0.00,weatherlink.com 1.10,2013-01-24 18:29:00,
2013-01-24 12:44:00,9.7,-3.0,30.59,SE,136,4.0,11.0,56,0.00,,,0.00,weatherlink.com 1.10,2013-01-24 18:44:00,
2013-01-24 12:59:00,10.3,-3.0,30.57,South,176,5.0,10.0,54,0.00,,,0.00,weatherlink.com 1.10,2013-01-24 18:59:00,
2013-01-24 13:14:00,10.4,-4.0,30.55,SSE,165,9.0,14.0,52,0.00,,,0.00,weatherlink.com 1.10,2013-01-24 19:14:00,
2013-01-24 13:29:00,11.4,-4.0,30.53,SE,127,4.0,14.0,51,0.00,,,0.00,weatherlink.com 1.10,2013-01-24 19:29:00,
2013-01-24 13:44:00,12.3,-3.0,30.53,South,183,6.0,13.0,50,0.00,,,0.00,weatherlink.com 1.10,2013-01-24 19:44:00,
2013-01-24 13:59:00,11.8,-5.0,30.51,SSW,197,4.0,14.0,48,0.00,,,0.00,weatherlink.com 1.10,2013-01-24 19:59:00,
2013-01-24 14:14:00,12.3,-4.0,30.52,SSE,153,1.0,14.0,48,0.00,,,0.00,weatherlink.com 1.10,2013-01-24 20:14:00,
2013-01-24 14:30:00,12.7,-4.0,30.52,South,180,3.0,10.0,47,0.00,,,0.00,weatherlink.com 1.10,2013-01-24 20:30:00,
2013-01-24 14:45:00,13.0,-4.0,30.51,South,178,5.0,11.0,46,0.00,,,0.00,weatherlink.com 1.10,2013-01-24 20:45:00,
2013-01-24 14:59:00,13.5,-5.0,30.50,South,189,4.0,14.0,44,0.00,,,0.00,weatherlink.com 1.10,2013-01-24 20:59:00,
2013-01-24 15:14:00,13.8,-5.0,30.49,SSE,152,11.0,15.0,44,0.00,,,0.00,weatherlink.com 1.10,2013-01-24 21:14:00,
2013-01-24 15:30:00,13.6,-5.0,30.48,SSE,162,3.0,11.0,44,0.00,,,0.00,weatherlink.com 1.10,2013-01-24 21:30:00,
2013-01-24 15:45:00,13.2,-5.0,30.46,SSE,163,4.0,12.0,45,0.00,,,0.00,weatherlink.com 1.10,2013-01-24 21:45:00,
2013-01-24 16:00:00,13.2,-5.0,30.44,SSW,193,3.0,11.0,45,0.00,,,0.00,weatherlink.com 1.10,2013-01-24 22:00:00,
2013-01-24 16:15:00,13.1,-5.0,30.42,South,169,3.0,11.0,45,0.00,,,0.00,weatherlink.com 1.10,2013-01-24 22:15:00,
2013-01-24 16:30:00,13.1,-5.0,30.42,SE,130,6.0,12.0,45,0.00,,,0.00,weatherlink.com 1.10,2013-01-24 22:30:00,
2013-01-24 16:45:00,13.2,-4.0,30.41,SSE,161,4.0,13.0,46,0.00,,,0.00,weatherlink.com 1.10,2013-01-24 22:45:00,
2013-01-24 17:00:00,13.1,-4.0,30.41,ESE,112,3.0,13.0,46,0.00,,,0.00,weatherlink.com 1.10,2013-01-24 23:00:00,
2013-01-24 17:15:00,13.1,-4.0,30.41,SSE,161,11.0,12.0,47,0.00,,,0.00,weatherlink.com 1.10,2013-01-24 23:15:00,
2013-01-24 17:30:00,13.2,-3.0,30.39,SSE,161,5.0,17.0,48,0.00,,,0.00,weatherlink.com 1.10,2013-01-24 23:30:00,
2013-01-24 17:45:00,13.3,-3.0,30.39,SSW,204,3.0,12.0,48,0.00,,,0.00,weatherlink.com 1.10,2013-01-24 23:45:00,
2013-01-24 18:00:00,13.4,-3.0,30.38,SE,136,2.0,13.0,49,0.00,,,0.00,weatherlink.com 1.10,2013-01-25 00:00:00,
2013-01-24 18:15:00,13.6,-2.0,30.38,SSW,194,4.0,9.0,49,0.00,,,0.00,weatherlink.com 1.10,2013-01-25 00:15:00,
2013-01-24 18:30:00,13.8,-2.0,30.38,SSE,159,5.0,14.0,50,0.00,,,0.00,weatherlink.com 1.10,2013-01-25 00:30:00,
2013-01-24 18:45:00,13.9,-2.0,30.37,SSE,150,7.0,10.0,50,0.00,,,0.00,weatherlink.com 1.10,2013-01-25 00:45:00,
2013-01-24 19:01:00,14.0,-2.0,30.36,SE,138,2.0,9.0,50,0.00,,,0.00,weatherlink.com 1.10,2013-01-25 01:01:00,
2013-01-24 19:16:00,14.2,-1.0,30.38,SSE,150,5.0,12.0,50,0.00,,,0.00,weatherlink.com 1.10,2013-01-25 01:16:00,
2013-01-24 19:31:00,14.5,-1.0,30.39,South,178,5.0,10.0,50,0.00,,,0.00,weatherlink.com 1.10,2013-01-25 01:31:00,
2013-01-24 19:46:00,14.5,-1.0,30.37,South,190,3.0,15.0,51,0.00,,,0.00,weatherlink.com 1.10,2013-01-25 01:46:00,
2013-01-24 20:01:00,14.5,-1.0,30.34,South,177,6.0,15.0,51,0.00,,,0.00,weatherlink.com 1.10,2013-01-25 02:01:00,
2013-01-24 20:16:00,14.5,-1.0,30.33,South,171,9.0,16.0,51,0.00,,,0.00,weatherlink.com 1.10,2013-01-25 02:16:00,
2013-01-24 20:31:00,14.6,0.0,30.30,SW,221,4.0,16.0,52,0.00,,,0.00,weatherlink.com 1.10,2013-01-25 02:31:00,
2013-01-24 20:46:00,14.6,0.0,30.30,South,185,5.0,18.0,52,0.00,,,0.00,weatherlink.com 1.10,2013-01-25 02:46:00,
2013-01-24 21:01:00,14.8,0.0,30.32,SE,140,5.0,17.0,53,0.00,,,0.00,weatherlink.com 1.10,2013-01-25 03:01:00,
2013-01-24 21:16:00,15.0,1.0,30.32,SSW,195,7.0,13.0,53,0.00,,,0.00,weatherlink.com 1.10,2013-01-25 03:16:00,
2013-01-24 21:31:00,15.2,1.0,30.30,SSE,165,3.0,14.0,53,0.00,,,0.00,weatherlink.com 1.10,2013-01-25 03:31:00,
2013-01-24 21:46:00,15.4,1.0,30.30,SSE,163,7.0,14.0,54,0.00,,,0.00,weatherlink.com 1.10,2013-01-25 03:46:00,
2013-01-24 22:01:00,15.6,2.0,30.31,SSW,213,7.0,15.0,54,0.00,,,0.00,weatherlink.com 1.10,2013-01-25 04:01:00,
2013-01-24 22:16:00,15.7,2.0,30.30,South,185,11.0,14.0,55,0.00,,,0.00,weatherlink.com 1.10,2013-01-25 04:16:00,
2013-01-24 22:32:00,15.8,2.0,30.30,South,186,3.0,13.0,55,0.00,,,0.00,weatherlink.com 1.10,2013-01-25 04:32:00,
2013-01-24 22:47:00,16.0,3.0,30.30,SW,215,5.0,10.0,56,0.00,,,0.00,weatherlink.com 1.10,2013-01-25 04:47:00,
2013-01-24 23:17:00,16.3,3.0,30.31,South,191,4.0,12.0,56,0.00,,,0.00,weatherlink.com 1.10,2013-01-25 05:17:00,
2013-01-24 23:32:00,16.4,3.0,30.29,SSW,199,7.0,13.0,57,0.00,,,0.00,weatherlink.com 1.10,2013-01-25 05:32:00,
2013-01-24 23:47:00,16.6,4.0,30.28,SSE,157,7.0,14.0,57,0.00,,,0.00,weatherlink.com 1.10,2013-01-25 05:47:00,